Regional Weather Roundup
Issued by NWS

Home | Current Version | Previous Version | Text Only | Print | Product List | Glossary On
Versions: 1 2 3 4 5 6 7 8 9 10 11 12 13 14 15 16 17 18 19 20 21 22 23 24 25 26 27 28 29 30 31 32 33 34 35 36 37 38 39 40 41 42 43 44 45 46 47 48 49 50
000
ASUS44 KFWD 021515
RWRTX
NORTH TEXAS HOURLY WEATHER ROUNDUP
NATIONAL WEATHER SERVICE FORT WORTH TX
1000 AM CDT MON MAY 02 2016

NOTE: "FAIR" INDICATES FEW OR NO CLOUDS BELOW 12,000 FEET WITH NO
SIGNIFICANT WEATHER AND/OR OBSTRUCTIONS TO VISIBILITY.

TXZ118-119-021600-
DALLAS/FORT WORTH METROPLEX

CITY           SKY/WX    TMP DP  RH WIND       PRES   REMARKS
DFW AIRPORT    CLOUDY    56  50  80 N16       30.14S
DALLAS LOVE    CLOUDY    56  52  86 N12       30.14F
FTW MEACHAM    CLOUDY    56  49  77 NW14      30.16R
DAL-EXECUTIVE  PTSUNNY   55  52  89 N14       30.13F
FTW-ALLIANCE   PTSUNNY   54  48  80 N13       30.14F
FTW-NAS-JRB    PTSUNNY   56  50  80 NW13      30.18R
FTW-SPINKS     PTSUNNY   55  50  82 NW20      30.17R
ARLINGTON      CLOUDY    59  51  75 NW12G23   30.14S
GRAND PRAIRIE  MOSUNNY   55  54  94 N9G21     30.16S
ADDISON        MOSUNNY   55  54  94 NW12      30.15F
MESQUITE       PTSUNNY   55  52  88 N7        30.13F
LANCASTER      RAIN      53  51  93 N8        30.14F
$$

TXZ091>094-102>105-117-120-121-131>134-021600-
NORTH CENTRAL TEXAS

CITY           SKY/WX    TMP DP  RH WIND       PRES   REMARKS
SHRMAN/DENISON CLOUDY    53  46  76 NW12      30.17S
GAINESVILLE    PTSUNNY   54  47  78 N13       30.18F
BOWIE          CLOUDY    53  46  78 NW13G18   30.19S
BRIDGEPORT     CLOUDY    54  48  80 N9        30.19F
DECATUR        MOSUNNY   52  47  83 N8G20     30.16F
DENTON         CLOUDY    54  48  80 NW14G20   30.16F
MCKINNEY       CLOUDY    54  51  90 N13       30.12F
GREENVILLE     CLOUDY    54  52  94 NW13      30.13S
ROCKWALL       PTSUNNY   55  52  91 N10G18    30.12F
TERRELL        LGT RAIN  55  51  86 N7        30.14R
WAXAHACHIE     CLOUDY    55  55  99 N12       30.15F
CLEBURNE       PTSUNNY   54  52  94 N9G18     30.19R
GRANBURY       CLOUDY    55  49  81 NW9       30.21R
$$

TXZ083>090-098>101-113>116-127>130-139>142-154-155-021600-
WESTERN NORTH TEXAS

CITY           SKY/WX    TMP DP  RH WIND       PRES   REMARKS
WICHITA FALLS  PTSUNNY   54  45  71 N14       30.22R
WF-KICKAPOO    MOSUNNY   56  44  63 N14G21    30.23F
VERNON         MOSUNNY   56  39  52 N9G20     30.25F
ABILENE        PTSUNNY   51  46  83 N14       30.23R
ABILENE-DYESS  CLOUDY    50  45  81 NW10      30.24R
BRECKENRIDGE   CLOUDY    54  46  74 N6        30.22F
GRAHAM         MOSUNNY   54  46  72 N14       30.18S
MINERAL WELLS  CLOUDY    53  48  83 NW9       30.19S
STEPHENVILLE   CLOUDY    53  48  84 N17       30.21R
COMANCHE       CLOUDY    51  50  94 N18       30.21R
BROWNWOOD      CLOUDY    52  48  87 N13       30.21R
COLEMAN        CLOUDY    51  46  83 N15       30.22S
$$

TXZ143>147-156>162-174-175-021600-
CENTRAL TEXAS

CITY           SKY/WX    TMP DP  RH WIND       PRES   REMARKS
WACO           CLOUDY    56  52  86 N16G25    30.13S
WACO-TSTC      CLOUDY    55  54  94 NW16G25   30.14
WACO-MCGREGOR  LGT RAIN  55  53  93 W12G17    30.19R
HILLSBORO      CLOUDY    55  52  91 N14       30.15R
CORSICANA      LGT RAIN  57  53  86 N16G24    30.08F
MEXIA          CLOUDY    57  56  95 N10G17    30.09F
HEARNE         CLOUDY    61  55  80 NW15      30.09F
CAMERON        CLOUDY    59  54  83 N16G22    30.11R
TEMPLE         TSTM      55  54  94 N10G23    30.14R
KILLEEN        LGT RAIN  52  52 100 N12       30.15S
KILLEEN-SKYLRK LGT RAIN  54  52  93 N15       30.15R
FORT HOOD      CLOUDY    54  52  94 N16       30.12F FOG
GATESVILLE     CLOUDY    54  52  94 MISG      30.17R FOG
HAMILTON       CLOUDY    54  53  96 N15       30.19R
LAMPASAS       CLOUDY    53  51  94 N8        30.17R
$$

TXZ095>097-106>112-122>126-135>138-148>153-164>167-021600-
EAST TEXAS

CITY           SKY/WX    TMP DP  RH WIND       PRES   REMARKS
PARIS          CLOUDY    54  46  76 NW12      30.13R
SULPHUR SPRNGS RAIN      55  54  94 NW13      30.13F
MOUNT PLEASANT CLOUDY    58  57  97 NW8       30.12F
MINEOLA        RAIN      57  55  94 N6        30.10F
TYLER          CLOUDY    61  55  81 N12       30.09F
LONGVIEW       LGT RAIN  59  57  93 N8        30.07R
MARSHALL       CLOUDY    57  54  88 N5        30.11R
ATHENS         LGT RAIN  57  57 100 N8        30.09S
PALESTINE      CLOUDY    59  57  95 NW6G16    30.09S
JACKSONVILLE   CLOUDY    58  56  94 N7        30.09F
HENDERSON      LGT RAIN  58  56  90 N5        30.09F
CENTER         CLOUDY    64  60  89 N14G23    30.05R
NACOGDOCHES    CLOUDY    61  54  77 N17G26    30.06R
LUFKIN         CLOUDY    61  55  81 N14G23    30.04R
$$

SUPPLEMENTAL OBSERVATIONS (CENTRAL)

CITY           SKY/WX    TMP DP  RH WIND       PRES   REMARKS
LAKE TEXOMA      N/A     55  50  82 NW13        N/A
CADDO GRASSLND   N/A     55  52  88 N3          N/A
PAT MAYSE LAKE   N/A     54  52  94 W8          N/A
GREENVILLE       N/A     54  50  87 N14         N/A
CEDAR HILL       N/A     55  52  88 N7G17       N/A
ATHENS           N/A     61  57  88 N3          N/A
MCGREGOR         N/A     54  48  82 N8G20       N/A
TEMPLE           N/A     55  52  88 N2G12       N/A
$$

SUPPLEMENTAL OBSERVATIONS (WEST)

CITY           SKY/WX    TMP DP  RH WIND       PRES   REMARKS
POSSUM KINGDOM   N/A     52  46  82 N10         N/A
LBJ GRASSLAND    N/A     54  46  76 NW9G17      N/A
GRANBURY         N/A     54  46  76 NW14        N/A
HAMBY            N/A     52  45  76 N8          N/A
IVIE RESERVOIR   N/A     52  46  82 NW9         N/A
COLORADO BEND    N/A     52  48  87 NE10        N/A
$$

SUPPLEMENTAL OBSERVATIONS (EAST)

CITY           SKY/WX    TMP DP  RH WIND       PRES   REMARKS
CADDO LAKE       N/A     61  57  88 NW1         N/A
LUFKIN           N/A     63  55  77 MISG        N/A
N SABINE NF      N/A     63  59  88 MISG        N/A
$$

SUPPLEMENTAL OBSERVATIONS ARE A COLLECTION OF AUTOMATED INSTRUMENTS
THAT ARE MAINTAINED BY A VARIETY OF FEDERAL AND STATE AGENCIES.
CERTAIN ELEMENTS...SUCH AS HUMIDITY VALUES AND SUSTAINED WIND
SPEEDS...MAY BE APPROXIMATED.





USA.gov is the U.S. government's official web portal to all federal, state and local government web resources and services.